CW7841 Weather Reports


Display with metric or nautical units.
time (UTC)temp
F
wind
direction
speed
MPH
gust
MPH
rain 1hr
in
rain 24hr
in
rain mn
in
humidity
%
barometer
mb
20180116093822 62 36 2.0 7.0 0.00 0.00 0.00 78 1025.9
20180116093322 62 5 1.0 7.0 0.00 0.00 0.00 76 1026.0
20180116092323 62 21 0.0 7.0 0.00 0.00 0.00 76 1025.7
20180116090822 62 28 2.0 7.0 0.00 0.00 0.00 76 1025.7
20180116085322 62 30 2.0 9.0 0.00 0.00 0.00 75 1025.6
20180116083822 62 50 3.0 9.0 0.00 0.00 0.00 75 1025.3
20180116083322 63 25 3.0 9.0 0.00 0.00 0.00 75 1025.5
20180116082822 62 33 1.0 9.0 0.00 0.00 0.00 74 1025.3
20180116082322 62 34 5.0 9.0 0.00 0.00 0.00 74 1025.4
20180116081823 62 35 3.0 9.0 0.00 0.00 0.00 75 1025.3
20180116080822 63 39 3.0 9.0 0.00 0.00 0.00 76 1025.3
20180116080322 63 32 5.0 9.0 0.00 0.00 0.00 76 1025.2
20180116075322 63 40 3.0 9.0 0.00 0.00 0.00 77 1025.4
20180116074822 62 30 3.0 9.0 0.00 0.00 0.00 75 1025.4
20180116074322 62 31 3.0 9.0 0.00 0.00 0.00 75 1025.4
20180116072322 63 33 3.0 8.0 0.00 0.00 0.00 76 1025.6
20180116071822 63 72 2.0 7.0 0.00 0.00 0.00 76 1025.7
20180116070822 63 64 3.0 7.0 0.00 0.00 0.00 74 1025.7
20180116070322 63 27 3.0 6.0 0.00 0.00 0.00 73 1025.9
20180116065822 63 42 3.0 10.0 0.00 0.00 0.00 73 1025.7
20180116064822 63 39 3.0 10.0 0.00 0.00 0.00 75 1025.9
20180116063822 63 35 4.0 10.0 0.00 0.00 0.00 75 1026.0
20180116062322 63 30 3.0 10.0 0.00 0.00 0.00 75 1026.1
20180116061822 63 35 5.0 10.0 0.00 0.00 0.00 75 1025.9
20180116061322 63 40 3.0 10.0 0.00 0.00 0.00 75 1026.0
20180116060822 63 28 2.0 9.0 0.00 0.00 0.00 76 1026.1
20180116060322 63 31 0.0 9.0 0.00 0.00 0.00 76 1026.1
20180116055322 63 27 3.0 11.0 0.00 0.00 0.00 75 1026.0
20180116054822 63 34 6.0 11.0 0.00 0.00 0.00 76 1026.1
20180116054322 63 35 2.0 11.0 0.00 0.00 0.00 76 1025.9
20180116053822 63 51 2.0 11.0 0.00 0.00 0.00 75 1026.1
20180116053322 63 23 4.0 11.0 0.00 0.00 0.00 74 1026.1
20180116052822 63 37 4.0 11.0 0.00 0.00 0.00 76 1026.2
20180116050822 63 47 7.0 11.0 0.00 0.00 0.00 76 1026.3
20180116050322 63 32 2.0 8.0 0.00 0.00 0.00 75 1026.3
20180116045822 63 28 2.0 9.0 0.00 0.00 0.00 75 1026.2
20180116045322 63 35 3.0 9.0 0.00 0.00 0.00 75 1026.3
20180116043822 62 31 3.0 8.0 0.00 0.00 0.00 80 1026.6
20180116043322 61 26 0.0 8.0 0.00 0.00 0.00 82 1026.5
20180116042822 60 43 3.0 8.0 0.00 0.00 0.00 86 1026.5
20180116042322 59 67 1.0 7.0 0.00 0.00 0.00 88 1026.4
20180116041322 59 348 3.0 7.0 0.00 0.00 0.00 90 1026.7
20180116040322 59 356 3.0 7.0 0.00 0.00 0.00 90 1026.8
20180116035822 58 1 2.0 6.0 0.00 0.00 0.00 90 1026.8
20180116035322 58 326 0.0 6.0 0.00 0.00 0.00 90 1026.8
20180116032822 58 351 1.0 6.0 0.00 0.00 0.00 89 1026.8
20180116032322 58 359 0.0 6.0 0.00 0.00 0.00 89 1026.8
20180116031822 58 358 0.0 6.0 0.00 0.00 0.00 88 1026.7
20180116030822 58 340 0.0 4.0 0.00 0.00 0.00 88 1026.8
20180116030322 58 337 0.0 4.0 0.00 0.00 0.00 87 1026.7
20180116025822 58 11 0.0 7.0 0.00 0.00 0.00 87 1026.8
20180116024322 58 340 0.0 7.0 0.00 0.00 0.00 87 1027.0
20180116022822 58 327 0.0 6.0 0.00 0.00 0.00 87 1027.0
20180116021822 58 341 0.0 6.0 0.00 0.00 0.00 86 1027.0
20180116021322 58 356 0.0 6.0 0.00 0.00 0.00 85 1026.9
20180116015821 58 355 0.0 10.0 0.00 0.00 0.00 84 1026.7
20180116015321 58 357 0.0 10.0 0.00 0.00 0.00 84 1026.5
20180116014822 58 338 0.0 10.0 0.00 0.00 0.00 84 1026.6
20180116013822 58 325 3.0 10.0 0.00 0.00 0.00 84 1026.5
20180116012822 58 341 2.0 10.0 0.00 0.00 0.00 83 1026.3
20180116012322 58 330 0.0 10.0 0.00 0.00 0.00 83 1026.4
20180116011822 58 323 0.0 10.0 0.00 0.00 0.00 82 1026.5
20180116005821 58 342 2.0 11.0 0.00 0.00 0.00 81 1026.0
20180116005322 58 342 2.0 11.0 0.00 0.00 0.00 82 1026.4
20180116004322 58 316 3.0 9.0 0.00 0.00 0.00 80 1026.2
20180116003822 58 343 3.0 9.0 0.00 0.00 0.00 80 1026.3
20180116003322 58 349 1.0 9.0 0.00 0.00 0.00 80 1026.3
20180116002321 58 358 1.0 9.0 0.00 0.00 0.00 80 1026.2
20180116001821 58 351 1.0 9.0 0.00 0.00 0.00 80 1026.2
20180116000821 59 322 1.0 5.0 0.00 0.00 0.00 80 1026.0
20180115235822 59 359 1.0 12.0 0.00 0.00 0.00 81 1026.0
20180115233321 59 339 0.0 10.0 0.00 0.00 0.00 82 1026.1
20180115232822 59 343 1.0 10.0 0.00 0.00 0.00 82 1025.9
20180115232321 59 349 1.0 10.0 0.00 0.00 0.00 82 1025.9
20180115231821 59 8 0.0 10.0 0.00 0.00 0.00 81 1025.9
20180115231322 59 0 3.0 7.0 0.00 0.00 0.00 81 1025.7
20180115230321 59 326 2.0 7.0 0.00 0.00 0.00 81 1025.6
20180115224821 60 349 1.0 9.0 0.00 0.00 0.00 81 1025.4
20180115224321 60 345 1.0 9.0 0.00 0.00 0.00 81 1025.5
20180115223321 60 350 4.0 9.0 0.00 0.00 0.00 80 1025.2
20180115222822 60 357 1.0 9.0 0.00 0.00 0.00 81 1025.5
20180115222322 60 350 1.0 9.0 0.00 0.00 0.00 81 1025.3
20180115220321 61 352 1.0 9.0 0.00 0.00 0.00 80 1025.4
20180115215821 61 6 8.0 13.0 0.00 0.00 0.00 80 1025.4
20180115214321 61 337 2.0 13.0 0.00 0.00 0.00 79 1025.2
20180115211821 61 315 7.0 12.0 0.00 0.00 0.00 79 1025.5
20180115210821 61 0 3.0 11.0 0.00 0.00 0.00 78 1025.3
20180115205821 61 0 3.0 11.0 0.00 0.00 0.00 78 1025.1
20180115205321 62 321 3.0 11.0 0.00 0.00 0.00 77 1025.0
20180115203821 62 317 4.0 11.0 0.00 0.00 0.00 77 1024.8
20180115203321 62 60 1.0 11.0 0.00 0.00 0.00 77 1025.1
20180115201821 62 1 2.0 11.0 0.00 0.00 0.00 77 1025.0
20180115201321 62 338 2.0 11.0 0.00 0.00 0.00 77 1025.1
20180115200821 62 355 3.0 11.0 0.00 0.00 0.00 77 1025.1
20180115195821 62 353 1.0 11.0 0.00 0.00 0.00 77 1025.1
20180115194821 62 320 0.0 11.0 0.00 0.00 0.00 77 1024.7
20180115194321 62 332 1.0 11.0 0.00 0.00 0.00 78 1024.6
20180115192821 62 311 1.0 11.0 0.00 0.00 0.00 78 1024.8
20180115192320 62 350 0.0 11.0 0.00 0.00 0.00 79 1025.0
20180115191321 62 317 2.0 11.0 0.00 0.00 0.00 78 1025.1
20180115184821 62 0 0.0 20.0 0.00 0.00 0.00 78 1025.3
20180115184320 62 358 0.0 20.0 0.00 0.00 0.00 78 1025.4
20180115183820 63 1 4.0 20.0 0.00 0.00 0.00 78 1025.6
20180115182820 63 355 0.0 20.0 0.00 0.00 0.00 77 1025.4
20180115182320 64 351 1.0 20.0 0.00 0.00 0.00 77 1025.6
20180115180320 64 359 1.0 20.0 0.00 0.00 0.00 76 1025.9
20180115175821 63 1 1.0 13.0 0.00 0.00 0.00 77 1025.8
20180115175320 63 356 2.0 13.0 0.00 0.00 0.00 78 1026.0
20180115174820 63 348 3.0 13.0 0.00 0.00 0.00 78 1026.2
20180115173820 63 351 7.0 13.0 0.00 0.00 0.00 77 1026.3
20180115172821 64 357 2.0 13.0 0.00 0.00 0.00 78 1026.4
20180115170820 63 347 7.0 13.0 0.00 0.00 0.00 78 1026.4
20180115165320 64 328 0.0 20.0 0.00 0.00 0.00 76 1026.5
20180115164820 64 317 7.0 20.0 0.00 0.00 0.00 76 1026.6
20180115164321 64 299 6.0 20.0 0.00 0.00 0.00 78 1026.8
20180115161320 63 1 2.0 13.0 0.00 0.00 0.00 80 1026.9
20180115160820 63 343 0.0 13.0 0.00 0.00 0.00 80 1027.0
20180115160320 62 358 2.0 11.0 0.00 0.00 0.00 81 1027.0
20180115154820 62 327 1.0 13.0 0.00 0.00 0.00 81 1027.0
20180115154320 62 342 2.0 13.0 0.00 0.00 0.00 80 1027.1
20180115153820 62 8 1.0 13.0 0.00 0.00 0.00 82 1026.9
20180115153320 62 15 1.0 13.0 0.00 0.00 0.00 80 1027.0
20180115152820 62 353 0.0 12.0 0.00 0.00 0.00 82 1027.0
20180115152320 61 9 2.0 12.0 0.00 0.00 0.00 82 1027.1
20180115151820 61 356 3.0 12.0 0.00 0.00 0.00 82 1027.0
20180115151320 61 14 0.0 12.0 0.00 0.00 0.00 81 1027.0
20180115145320 60 350 2.0 12.0 0.00 0.00 0.00 83 1026.7
20180115144820 60 332 2.0 12.0 0.00 0.00 0.00 86 1026.6
20180115142821 58 300 3.0 12.0 0.00 0.00 0.00 86 1026.6
20180115141820 58 316 1.0 12.0 0.00 0.00 0.00 92 1026.4
20180115141320 57 303 4.0 10.0 0.00 0.00 0.00 93 1026.4
20180115140820 57 278 1.0 9.0 0.00 0.00 0.00 93 1026.4
20180115135820 56 301 1.0 10.0 0.00 0.00 0.00 95 1026.1
20180115135320 56 293 0.0 10.0 0.00 0.00 0.00 95 1026.1
20180115134820 55 319 0.0 10.0 0.00 0.00 0.00 92 1026.0
20180115134320 55 326 5.0 10.0 0.00 0.00 0.00 92 1026.0
20180115133820 55 356 1.0 10.0 0.00 0.00 0.00 93 1026.1
20180115132820 54 319 2.0 10.0 0.00 0.00 0.00 93 1025.9
20180115132320 54 8 3.0 10.0 0.00 0.00 0.00 94 1025.9
20180115131820 54 331 7.0 10.0 0.00 0.00 0.00 94 1025.8
20180115131320 54 311 0.0 8.0 0.00 0.00 0.00 96 1025.7
20180115130820 53 304 1.0 8.0 0.00 0.00 0.00 94 1025.6
20180115125820 53 295 0.0 9.0 0.00 0.00 0.00 95 1025.6
20180115124820 52 355 0.0 9.0 0.00 0.00 0.00 94 1025.6
20180115124320 52 333 0.0 9.0 0.00 0.00 0.00 93 1025.5
20180115123820 52 357 1.0 8.0 0.00 0.00 0.00 94 1025.3
20180115123320 52 318 0.0 5.0 0.00 0.00 0.00 93 1025.5
20180115122820 51 320 2.0 5.0 0.00 0.00 0.00 93 1025.4
20180115121820 51 315 1.0 5.0 0.00 0.00 0.00 93 1025.5
20180115120820 51 299 1.0 5.0 0.00 0.00 0.00 93 1025.2
20180115120319 51 311 0.0 0.0 0.00 0.00 0.00 93 1025.3
20180115115819 51 310 0.0 10.0 0.00 0.00 0.00 93 1025.4
20180115115319 51 334 3.0 10.0 0.00 0.00 0.00 93 1025.4
20180115114819 51 327 3.0 10.0 0.00 0.00 0.00 92 1025.2
20180115114319 51 320 0.0 10.0 0.00 0.00 0.00 92 1025.2
20180115113330 50 301 0.0 10.0 0.00 0.00 0.00 92 1025.1
20180115112819 50 331 1.0 10.0 0.00 0.00 0.00 91 1024.8
20180115112319 50 311 0.0 7.0 0.00 0.00 0.00 92 1025.1
20180115111819 50 300 0.0 7.0 0.00 0.00 0.00 92 1025.0
20180115110819 50 352 0.0 7.0 0.00 0.00 0.00 92 1025.0
20180115110319 50 319 4.0 7.0 0.00 0.00 0.00 92 1024.9
20180115104820 50 346 0.0 13.0 0.00 0.00 0.00 91 1025.0
20180115104319 50 348 1.0 13.0 0.00 0.00 0.00 91 1025.2
20180115103819 50 323 1.0 13.0 0.00 0.00 0.00 91 1025.0
20180115102319 50 327 4.0 13.0 0.00 0.00 0.00 91 1025.0
20180115101319 50 320 3.0 13.0 0.00 0.00 0.00 91 1024.9
20180115100819 50 317 5.0 13.0 0.00 0.00 0.00 90 1025.1
20180115095819 50 344 0.0 11.0 0.00 0.00 0.00 90 1025.1